User: anonymous   Login
Location: Irma
(52.9170°N, 111.2330°W)
Time: 23:22:11
(UTC-06:00)
Language:

Cosmos 2279 Rocket - Orbit

View from above orbital plane
View from above orbital plane
View from above satellite
View from above satellite

Ground track
Ground track

The orbit data is extracted from the following two-line orbital elements,

1 23093U 94024B   15215.52447724  .00000100  00000-0  84465-4 0  9997
2 23093 082.9458 262.9270 0011439 117.3539 242.8785 13.77674555537292
Epoch (UTC): 03 August 2015 12:35:14
Eccentricity: 0.0011439
inclination: 82.9458°
perigee height: 964 km
apogee height: 980 km
right ascension of ascending node: 262.9270°
argument of perigee: 117.3539°
revolutions per day: 13.77674555
mean anomaly at epoch: 242.8785°
orbit number at epoch: 53729

The dashed part of the orbit path shows where the satellite is in the earth's shadow,  

DLR